QPF
0.03 0.03 0.04 0.04 0.04 0.04 0.05 0.05 0.03 0.03 0.03 0.02 0.03 0.03 0.02 0.02 0.03 0.03 0.04 0.03 0.03 0.03 0.03 0.02 0.02 0.02 0.02 0.03 0.04 0.04 0.03 0.03 0.03 0.02 0.02 0.01 0.01 0.02 0.03 0.03 0.03 0.03 0.04
0.06 0.09 0.11 0.08 0.05 0.04 0.05 0.05 0.03 0.02 0.02 0.03 0.04 0.03 0.02 0.03 0.04 0.04 0.04 0.03 0.04 0.05 0.04 0.03 0.02 0.03 0.03 0.02 0.03 0.04 0.03 0.03 0.03 0.03 0.02 0.02 0.02 0.03 0.04 0.05 0.05 0.04 0.03
0.11 0.19 0.22 0.18 0.11 0.06 0.05 0.05 0.04 0.03 0.03 0.04 0.04 0.03 0.03 0.05 0.06 0.05 0.04 0.03 0.03 0.04 0.04 0.05 0.05 0.05 0.04 0.03 0.03 0.04 0.03 0.03 0.03 0.03 0.04 0.03 0.02 0.04 0.04 0.04 0.04 0.03 0.03
0.12 0.12 0.11 0.10 0.09 0.07 0.05 0.05 0.05 0.05 0.04 0.04 0.06 0.06 0.05 0.05 0.05 0.05 0.04 0.04 0.05 0.05 0.05 0.05 0.05 0.05 0.04 0.04 0.04 0.04 0.04 0.04 0.03 0.03 0.03 0.03 0.03 0.03 0.04 0.03 0.03 0.03 0.03
0.17 0.13 0.11 0.09 0.09 0.09 0.07 0.06 0.05 0.04 0.04 0.04 0.04 0.05 0.04 0.04 0.04 0.04 0.05 0.05 0.06 0.06 0.07 0.07 0.06 0.05 0.05 0.05 0.05 0.05 0.04 0.03 0.03 0.03 0.02 0.02 0.02 0.02 0.02 0.03 0.05 0.05 0.04
0.12 0.13 0.14 0.14 0.14 0.13 0.10 0.08 0.07 0.06 0.04 0.04 0.03 0.03 0.03 0.03 0.03 0.03 0.04 0.03 0.03 0.04 0.05 0.06 0.06 0.05 0.05 0.05 0.04 0.05 0.05 0.04 0.03 0.02 0.02 0.01 0.02 0.02 0.02 0.02 0.03 0.03 0.03
0.15 0.13 0.15 0.15 0.14 0.12 0.12 0.09 0.07 0.06 0.05 0.04 0.04 0.04 0.03 0.03 0.03 0.03 0.03 0.02 0.02 0.02 0.02 0.02 0.02 0.03 0.04 0.05 0.05 0.04 0.03 0.02 0.02 0.02 0.01 0.01 0.01 0.02 0.02 0.02 0.02 0.02 0.02
0.20 0.20 0.19 0.16 0.12 0.10 0.12 0.12 0.10 0.08 0.07 0.05 0.06 0.05 0.04 0.03 0.02 0.03 0.03 0.03 0.02 0.02 0.02 0.01 0.02 0.02 0.02 0.03 0.03 0.02 0.02 0.02 0.02 0.01 0.02 0.01 0.02 0.02 0.02 0.02 0.02 0.03 0.02
0.09 0.11 0.13 0.19 0.15 0.13 0.14 0.14 0.11 0.11 0.10 0.08 0.06 0.06 0.05 0.04 0.03 0.03 0.03 0.02 0.02 0.03 0.02 0.01 0.01 0.01 0.02 0.03 0.03 0.03 0.02 0.02 0.02 0.02 0.01 0.01 0.02 0.02 0.02 0.02 0.02 0.02 0.03
0.04 0.05 0.06 0.09 0.09 0.08 0.09 0.09 0.09 0.09 0.10 0.10 0.07 0.05 0.05 0.06 0.05 0.05 0.04 0.02 0.02 0.02 0.02 0.01 0.01 0.01 0.01 0.02 0.02 0.03 0.02 0.02 0.02 0.01 0.01 0.01 0.01 0.01 0.01 0.01 0.02 0.02 0.02
0.03 0.03 0.04 0.05 0.06 0.05 0.05 0.05 0.06 0.07 0.07 0.09 0.08 0.05 0.05 0.05 0.06 0.06 0.05 0.03 0.02 0.02 0.02 0.02 0.01 0.01 0.01 0.01 0.01 0.02 0.03 0.03 0.03 0.02 0.01 0.01 0.01 0.01 0.01 0.01 0.02 0.02 0.02
0.04 0.04 0.04 0.05 0.06 0.05 0.04 0.04 0.05 0.06 0.05 0.07 0.09 0.08 0.06 0.06 0.05 0.05 0.04 0.04 0.04 0.03 0.02 0.02 0.02 0.02 0.01 0.01 0.01 0.02 0.03 0.03 0.02 0.02 0.02 0.01 0.02 0.01 0.01 0.02 0.02 0.02 0.02
0.04 0.02 0.03 0.05 0.05 0.04 0.04 0.03 0.03 0.03 0.04 0.04 0.05 0.06 0.07 0.06 0.04 0.04 0.04 0.05 0.05 0.04 0.03 0.03 0.03 0.03 0.02 0.01 0.01 0.02 0.02 0.02 0.02 0.01 0.01 0.01 0.02 0.03 0.02 0.02 0.03 0.03 0.03
0.04 0.03 0.03 0.03 0.03 0.03 0.03 0.03 0.02 0.02 0.02 0.03 0.03 0.03 0.03 0.03 0.03 0.03 0.03 0.04 0.05 0.06 0.04 0.03 0.02 0.02 0.02 0.02 0.02 0.02 0.02 0.02 0.02 0.02 0.02 0.02 0.02 0.02 0.02 0.02 0.02 0.02 0.02
0.06 0.06 0.04 0.03 0.03 0.02 0.02 0.02 0.01 0.01 0.02 0.01 0.02 0.02 0.03 0.03 0.03 0.03 0.04 0.04 0.05 0.04 0.03 0.02 0.02 0.02 0.02 0.01 0.02 0.02 0.02 0.02 0.02 0.02 0.01 0.02 0.03 0.03 0.02 0.03 0.03 0.03 0.03
0.06 0.06 0.05 0.04 0.03 0.02 0.02 0.01 0.01 0.01 0.01 0.01 0.01 0.02 0.03 0.03 0.03 0.04 0.04 0.04 0.04 0.03 0.03 0.02 0.01 0.01 0.01 0.01 0.02 0.02 0.02 0.02 0.02 0.01 0.01 0.03 0.05 0.04 0.03 0.04 0.04 0.04 0.04
0.05 0.05 0.04 0.04 0.03 0.02 0.02 0.01 0.01 0.01 0.01 0.01 0.01 0.02 0.02 0.02 0.02 0.03 0.03 0.03 0.04 0.04 0.03 0.02 0.01 0.02 0.02 0.03 0.03 0.02 0.02 0.02 0.02 0.02 0.02 0.04 0.06 0.03 0.02 0.03 0.03 0.04 0.04
0.05 0.06 0.05 0.05 0.03 0.02 0.01 0.01 0.01 0.01 0.01 0.01 0.01 0.01 0.02 0.02 0.02 0.02 0.02 0.03 0.03 0.03 0.03 0.03 0.03 0.04 0.05 0.06 0.06 0.06 0.05 0.04 0.03 0.03 0.04 0.06 0.07 0.04 0.04 0.04 0.04 0.04 0.02
0.05 0.04 0.04 0.04 0.04 0.04 0.03 0.03 0.03 0.03 0.02 0.01 0.01 0.01 0.01 0.01 0.01 0.02 0.03 0.03 0.03 0.03 0.03 0.03 0.03 0.04 0.05 0.07 0.06 0.06 0.05 0.03 0.04 0.06 0.06 0.07 0.06 0.03 0.03 0.03 0.03 0.03 0.02
0.05 0.05 0.04 0.04 0.04 0.05 0.05 0.05 0.05 0.04 0.02 0.02 0.01 0.01 0.01 0.01 0.01 0.01 0.02 0.02 0.02 0.02 0.03 0.04 0.05 0.05 0.07 0.09 0.08 0.07 0.05 0.05 0.06 0.07 0.05 0.05 0.05 0.05 0.04 0.04 0.04 0.03 0.02
0.05 0.05 0.05 0.04 0.05 0.06 0.06 0.06 0.05 0.05 0.04 0.03 0.02 0.02 0.02 0.02 0.01 0.02 0.02 0.01 0.01 0.01 0.02 0.03 0.04 0.06 0.08 0.09 0.07 0.05 0.04 0.05 0.05 0.04 0.04 0.04 0.04 0.05 0.04 0.03 0.04 0.04 0.03
0.04 0.03 0.03 0.03 0.04 0.04 0.04 0.04 0.05 0.06 0.06 0.04 0.03 0.03 0.03 0.03 0.02 0.03 0.02 0.02 0.02 0.03 0.03 0.04 0.05 0.07 0.09 0.10 0.07 0.05 0.05 0.05 0.04 0.04 0.04 0.04 0.03 0.03 0.03 0.03 0.03 0.03 0.02
0.02 0.03 0.05 0.06 0.07 0.09 0.08 0.07 0.07 0.07 0.07 0.06 0.04 0.04 0.03 0.03 0.03 0.04 0.03 0.03 0.03 0.04 0.06 0.06 0.06 0.07 0.09 0.10 0.07 0.06 0.06 0.05 0.05 0.05 0.05 0.04 0.03 0.03 0.02 0.02 0.02 0.02 0.02
0.03 0.04 0.05 0.05 0.07 0.08 0.07 0.07 0.07 0.07 0.06 0.06 0.05 0.04 0.03 0.03 0.03 0.04 0.04 0.04 0.04 0.05 0.06 0.07 0.08 0.10 0.13 0.11 0.08 0.07 0.07 0.07 0.06 0.06 0.06 0.05 0.03 0.03 0.02 0.02 0.02 0.02 0.02
0.03 0.03 0.03 0.03 0.03 0.03 0.03 0.04 0.04 0.04 0.05 0.05 0.04 0.04 0.04 0.03 0.03 0.03 0.03 0.03 0.03 0.03 0.04 0.05 0.07 0.10 0.12 0.10 0.08 0.08 0.07 0.07 0.07 0.08 0.07 0.05 0.04 0.03 0.03 0.02 0.02 0.02 0.02
0.03 0.03 0.03 0.03 0.03 0.02 0.03 0.03 0.03 0.04 0.04 0.04 0.04 0.04 0.04 0.03 0.03 0.02 0.02 0.02 0.02 0.02 0.03 0.03 0.04 0.06 0.07 0.06 0.06 0.06 0.06 0.05 0.05 0.05 0.05 0.03 0.03 0.03 0.02 0.02 0.02 0.02 0.02
MSLP
1012.09 1011.01 1010.03 1009.18 1008.48 1007.95 1007.59 1007.43 1007.45 1007.66 1008.05 1008.57 1009.20 1009.87 1010.55 1011.18 1011.73 1012.17 1012.51 1012.75 1012.93 1013.08 1013.24 1013.42 1013.66 1013.97 1014.32 1014.72 1015.15 1015.58 1015.99 1016.37 1016.71 1017.02 1017.29 1017.53 1017.74 1017.94 1018.13 1018.31 1018.47 1018.62 1018.75
1012.54 1011.44 1010.41 1009.48 1008.67 1008.02 1007.53 1007.24 1007.14 1007.24 1007.53 1007.97 1008.55 1009.20 1009.87 1010.52 1011.11 1011.61 1012.01 1012.31 1012.53 1012.70 1012.85 1013.02 1013.23 1013.48 1013.80 1014.18 1014.61 1015.06 1015.53 1015.99 1016.44 1016.85 1017.22 1017.56 1017.86 1018.13 1018.37 1018.58 1018.78 1018.95 1019.10
1012.91 1011.83 1010.79 1009.82 1008.95 1008.21 1007.62 1007.20 1006.97 1006.94 1007.11 1007.44 1007.93 1008.51 1009.15 1009.80 1010.41 1010.95 1011.41 1011.78 1012.07 1012.28 1012.47 1012.64 1012.84 1013.07 1013.37 1013.72 1014.14 1014.60 1015.10 1015.62 1016.13 1016.62 1017.07 1017.49 1017.86 1018.20 1018.50 1018.77 1019.01 1019.24 1019.44
1013.18 1012.15 1011.14 1010.17 1009.26 1008.45 1007.78 1007.25 1006.90 1006.73 1006.75 1006.96 1007.33 1007.82 1008.39 1009.01 1009.63 1010.21 1010.73 1011.17 1011.53 1011.82 1012.05 1012.26 1012.47 1012.71 1012.98 1013.32 1013.72 1014.18 1014.68 1015.21 1015.76 1016.29 1016.79 1017.26 1017.69 1018.08 1018.44 1018.77 1019.08 1019.38 1019.64
1013.37 1012.40 1011.42 1010.46 1009.54 1008.69 1007.94 1007.31 1006.84 1006.54 1006.42 1006.48 1006.71 1007.09 1007.59 1008.16 1008.77 1009.38 1009.95 1010.46 1010.90 1011.28 1011.59 1011.85 1012.10 1012.34 1012.62 1012.95 1013.33 1013.76 1014.25 1014.77 1015.31 1015.85 1016.37 1016.86 1017.32 1017.76 1018.16 1018.55 1018.92 1019.29 1019.63
1013.49 1012.57 1011.63 1010.68 1009.75 1008.86 1008.04 1007.32 1006.74 1006.30 1006.04 1005.96 1006.07 1006.34 1006.75 1007.27 1007.85 1008.48 1009.09 1009.68 1010.20 1010.66 1011.05 1011.39 1011.68 1011.96 1012.25 1012.57 1012.94 1013.35 1013.80 1014.29 1014.81 1015.32 1015.83 1016.32 1016.79 1017.23 1017.67 1018.09 1018.52 1018.95 1019.36
1013.54 1012.65 1011.73 1010.79 1009.84 1008.92 1008.04 1007.24 1006.55 1006.01 1005.63 1005.42 1005.41 1005.57 1005.90 1006.36 1006.93 1007.56 1008.21 1008.85 1009.45 1009.99 1010.46 1010.87 1011.23 1011.55 1011.87 1012.19 1012.55 1012.94 1013.36 1013.82 1014.29 1014.77 1015.25 1015.71 1016.16 1016.59 1017.03 1017.47 1017.92 1018.39 1018.86
1013.54 1012.67 1011.75 1010.80 1009.83 1008.87 1007.94 1007.08 1006.31 1005.68 1005.20 1004.90 1004.79 1004.87 1005.13 1005.54 1006.08 1006.70 1007.37 1008.05 1008.70 1009.30 1009.84 1010.32 1010.73 1011.11 1011.46 1011.81 1012.17 1012.55 1012.95 1013.38 1013.81 1014.25 1014.69 1015.11 1015.52 1015.93 1016.34 1016.77 1017.22 1017.69 1018.19
1013.49 1012.62 1011.70 1010.74 1009.75 1008.76 1007.79 1006.89 1006.07 1005.38 1004.84 1004.48 1004.31 1004.33 1004.53 1004.89 1005.39 1005.99 1006.65 1007.34 1008.01 1008.65 1009.23 1009.76 1010.22 1010.64 1011.03 1011.41 1011.79 1012.18 1012.58 1012.99 1013.40 1013.81 1014.20 1014.58 1014.95 1015.31 1015.68 1016.08 1016.50 1016.96 1017.45
1013.43 1012.56 1011.63 1010.66 1009.66 1008.66 1007.68 1006.76 1005.93 1005.22 1004.66 1004.26 1004.06 1004.03 1004.19 1004.50 1004.95 1005.50 1006.13 1006.78 1007.44 1008.07 1008.66 1009.20 1009.70 1010.15 1010.57 1010.98 1011.39 1011.80 1012.21 1012.63 1013.03 1013.42 1013.79 1014.14 1014.46 1014.78 1015.10 1015.45 1015.82 1016.24 1016.71
1013.37 1012.50 1011.59 1010.62 1009.63 1008.65 1007.69 1006.79 1005.98 1005.28 1004.73 1004.34 1004.11 1004.06 1004.17 1004.43 1004.81 1005.29 1005.83 1006.41 1007.01 1007.59 1008.14 1008.66 1009.15 1009.61 1010.05 1010.49 1010.93 1011.37 1011.80 1012.24 1012.65 1013.04 1013.40 1013.73 1014.02 1014.30 1014.58 1014.88 1015.21 1015.58 1016.01
1013.33 1012.49 1011.60 1010.67 1009.72 1008.78 1007.87 1007.02 1006.27 1005.62 1005.10 1004.73 1004.50 1004.42 1004.48 1004.67 1004.96 1005.33 1005.76 1006.22 1006.71 1007.19 1007.66 1008.12 1008.57 1009.01 1009.45 1009.90 1010.35 1010.82 1011.28 1011.74 1012.18 1012.59 1012.95 1013.28 1013.56 1013.83 1014.08 1014.34 1014.63 1014.97 1015.36
1013.34 1012.55 1011.71 1010.83 1009.95 1009.08 1008.25 1007.49 1006.81 1006.23 1005.77 1005.42 1005.20 1005.09 1005.08 1005.18 1005.35 1005.58 1005.86 1006.18 1006.51 1006.86 1007.21 1007.58 1007.95 1008.34 1008.75 1009.19 1009.65 1010.13 1010.61 1011.09 1011.56 1011.99 1012.37 1012.72 1013.01 1013.28 1013.53 1013.78 1014.06 1014.37 1014.75
1013.43 1012.69 1011.91 1011.12 1010.33 1009.56 1008.83 1008.16 1007.58 1007.08 1006.67 1006.35 1006.12 1005.97 1005.89 1005.87 1005.91 1005.99 1006.10 1006.24 1006.41 1006.60 1006.81 1007.05 1007.33 1007.64 1008.00 1008.40 1008.84 1009.31 1009.80 1010.30 1010.78 1011.23 1011.64 1012.01 1012.34 1012.63 1012.91 1013.18 1013.47 1013.80 1014.18
1013.58 1012.92 1012.23 1011.53 1010.84 1010.18 1009.56 1009.00 1008.50 1008.08 1007.71 1007.41 1007.16 1006.97 1006.80 1006.67 1006.57 1006.49 1006.43 1006.40 1006.39 1006.42 1006.49 1006.61 1006.77 1007.00 1007.28 1007.63 1008.03 1008.47 1008.95 1009.43 1009.92 1010.38 1010.82 1011.23 1011.59 1011.93 1012.25 1012.56 1012.90 1013.26 1013.68
1013.82 1013.23 1012.63 1012.03 1011.45 1010.90 1010.39 1009.93 1009.51 1009.15 1008.82 1008.53 1008.25 1008.00 1007.75 1007.51 1007.28 1007.06 1006.85 1006.67 1006.52 1006.41 1006.36 1006.36 1006.42 1006.56 1006.77 1007.04 1007.38 1007.78 1008.21 1008.67 1009.13 1009.60 1010.05 1010.48 1010.89 1011.28 1011.66 1012.04 1012.43 1012.85 1013.32
1014.12 1013.61 1013.10 1012.60 1012.13 1011.68 1011.27 1010.89 1010.55 1010.23 1009.93 1009.63 1009.33 1009.02 1008.71 1008.38 1008.05 1007.72 1007.41 1007.12 1006.87 1006.66 1006.52 1006.43 1006.42 1006.48 1006.62 1006.82 1007.09 1007.42 1007.79 1008.20 1008.63 1009.07 1009.52 1009.96 1010.40 1010.84 1011.27 1011.72 1012.18 1012.67 1013.18
1014.48 1014.06 1013.64 1013.23 1012.85 1012.50 1012.17 1011.86 1011.57 1011.29 1011.00 1010.70 1010.38 1010.04 1009.67 1009.29 1008.91 1008.53 1008.16 1007.82 1007.52 1007.28 1007.09 1006.96 1006.90 1006.91 1006.98 1007.12 1007.32 1007.57 1007.86 1008.20 1008.57 1008.97 1009.39 1009.83 1010.28 1010.75 1011.23 1011.73 1012.24 1012.78 1013.34
1014.90 1014.55 1014.21 1013.89 1013.60 1013.32 1013.06 1012.82 1012.57 1012.31 1012.04 1011.74 1011.42 1011.07 1010.69 1010.30 1009.91 1009.52 1009.16 1008.84 1008.55 1008.32 1008.13 1008.01 1007.93 1007.91 1007.94 1008.02 1008.14 1008.31 1008.53 1008.78 1009.08 1009.41 1009.79 1010.20 1010.64 1011.11 1011.61 1012.13 1012.68 1013.24 1013.82
1015.35 1015.08 1014.82 1014.57 1014.35 1014.14 1013.94 1013.74 1013.53 1013.31 1013.05 1012.77 1012.47 1012.13 1011.78 1011.43 1011.08 1010.74 1010.44 1010.17 1009.95 1009.77 1009.63 1009.54 1009.48 1009.45 1009.46 1009.49 1009.55 1009.64 1009.76 1009.93 1010.14 1010.40 1010.70 1011.06 1011.46 1011.91 1012.39 1012.91 1013.45 1014.01 1014.58
1015.82 1015.61 1015.42 1015.25 1015.09 1014.94 1014.78 1014.63 1014.45 1014.26 1014.04 1013.79 1013.52 1013.24 1012.95 1012.66 1012.39 1012.15 1011.94 1011.77 1011.64 1011.55 1011.48 1011.44 1011.41 1011.40 1011.39 1011.38 1011.38 1011.40 1011.44 1011.52 1011.64 1011.81 1012.03 1012.32 1012.66 1013.05 1013.49 1013.97 1014.47 1014.98 1015.51
1016.30 1016.14 1016.01 1015.89 1015.78 1015.68 1015.57 1015.45 1015.31 1015.16 1014.98 1014.78 1014.57 1014.35 1014.14 1013.95 1013.78 1013.65 1013.55 1013.50 1013.47 1013.48 1013.49 1013.51 1013.53 1013.52 1013.51 1013.47 1013.42 1013.38 1013.34 1013.33 1013.37 1013.45 1013.59 1013.79 1014.06 1014.38 1014.75 1015.15 1015.58 1016.03 1016.48
1016.74 1016.63 1016.54 1016.46 1016.39 1016.33 1016.25 1016.17 1016.07 1015.96 1015.83 1015.68 1015.54 1015.40 1015.28 1015.19 1015.13 1015.11 1015.13 1015.18 1015.26 1015.35 1015.44 1015.51 1015.56 1015.57 1015.55 1015.49 1015.41 1015.31 1015.22 1015.14 1015.10 1015.10 1015.16 1015.28 1015.46 1015.70 1015.98 1016.30 1016.65 1017.00 1017.36
1017.12 1017.04 1016.98 1016.93 1016.89 1016.85 1016.81 1016.76 1016.69 1016.62 1016.53 1016.45 1016.37 1016.31 1016.28 1016.27 1016.31 1016.39 1016.50 1016.65 1016.80 1016.96 1017.11 1017.22 1017.30 1017.32 1017.30 1017.23 1017.12 1016.99 1016.86 1016.73 1016.63 1016.58 1016.57 1016.62 1016.73 1016.88 1017.08 1017.31 1017.56 1017.82 1018.09
1017.42 1017.36 1017.31 1017.28 1017.26 1017.24 1017.22 1017.19 1017.15 1017.11 1017.08 1017.04 1017.02 1017.03 1017.06 1017.13 1017.25 1017.40 1017.58 1017.78 1018.00 1018.20 1018.38 1018.52 1018.61 1018.65 1018.63 1018.56 1018.44 1018.30 1018.15 1018.00 1017.87 1017.78 1017.73 1017.72 1017.77 1017.85 1017.97 1018.12 1018.28 1018.46 1018.64
1017.63 1017.57 1017.53 1017.51 1017.50 1017.49 1017.48 1017.47 1017.46 1017.45 1017.45 1017.45 1017.48 1017.53 1017.62 1017.74 1017.90 1018.10 1018.32 1018.55 1018.79 1019.02 1019.22 1019.37 1019.47 1019.52 1019.51 1019.45 1019.35 1019.22 1019.07 1018.93 1018.80 1018.70 1018.63 1018.59 1018.60 1018.63 1018.70 1018.78 1018.87 1018.98 1019.10
Thickness
5744 5743 5741 5740 5739 5737 5735 5733 5731 5728 5726 5723 5721 5719 5716 5714 5713 5710 5709 5707 5705 5704 5704 5703 5702 5702 5700 5698 5697 5695 5692 5689 5684 5685 5687 5688 5688 5688 5687 5687 5686 5685 5684
5742 5740 5737 5735 5734 5732 5731 5730 5728 5726 5723 5721 5718 5715 5713 5711 5709 5707 5705 5704 5702 5700 5700 5699 5698 5698 5696 5695 5693 5691 5689 5687 5683 5680 5681 5682 5682 5683 5682 5681 5681 5680 5680
5738 5736 5732 5729 5727 5727 5727 5726 5724 5722 5720 5717 5715 5712 5710 5708 5706 5704 5702 5701 5699 5698 5697 5695 5694 5693 5691 5690 5689 5687 5685 5684 5681 5678 5677 5677 5677 5677 5675 5675 5675 5674 5674
5733 5730 5727 5726 5725 5723 5722 5721 5719 5718 5715 5713 5710 5708 5706 5704 5702 5700 5699 5697 5695 5695 5694 5693 5691 5690 5688 5686 5685 5683 5682 5679 5676 5674 5672 5671 5670 5670 5668 5667 5666 5667 5668
5726 5723 5722 5721 5720 5718 5715 5714 5714 5712 5711 5709 5706 5703 5701 5700 5698 5696 5694 5693 5691 5690 5689 5689 5688 5687 5686 5684 5682 5680 5678 5674 5671 5668 5666 5665 5663 5662 5661 5661 5659 5659 5661
5717 5716 5716 5715 5714 5711 5709 5708 5707 5706 5705 5703 5701 5698 5696 5695 5694 5692 5690 5687 5686 5684 5683 5682 5682 5681 5681 5679 5678 5677 5675 5671 5667 5663 5661 5659 5659 5658 5657 5656 5653 5651 5651
5710 5709 5708 5710 5708 5706 5704 5701 5700 5700 5699 5697 5694 5692 5690 5690 5689 5687 5685 5682 5680 5678 5677 5676 5677 5676 5674 5672 5671 5671 5669 5668 5666 5662 5658 5656 5655 5655 5653 5650 5648 5646 5646
5702 5702 5702 5702 5700 5698 5696 5694 5695 5695 5693 5691 5689 5687 5685 5685 5684 5682 5680 5677 5675 5673 5672 5671 5670 5669 5668 5666 5664 5663 5662 5661 5660 5658 5656 5655 5654 5652 5650 5648 5645 5643 5642
5695 5695 5695 5695 5693 5690 5688 5687 5688 5688 5686 5685 5684 5682 5680 5679 5678 5676 5674 5671 5668 5667 5666 5666 5665 5663 5663 5661 5658 5655 5654 5654 5655 5654 5653 5651 5650 5648 5646 5642 5638 5636 5634
5688 5688 5688 5688 5686 5684 5683 5682 5682 5682 5680 5679 5677 5676 5674 5673 5672 5670 5668 5665 5662 5660 5660 5659 5659 5658 5657 5655 5651 5649 5647 5647 5647 5646 5645 5645 5643 5642 5641 5638 5635 5631 5629
5681 5681 5681 5680 5679 5678 5676 5676 5676 5675 5673 5671 5670 5668 5667 5666 5665 5663 5661 5659 5656 5654 5653 5652 5652 5651 5650 5648 5646 5644 5643 5642 5640 5639 5637 5637 5636 5636 5635 5634 5632 5629 5625
5674 5673 5672 5672 5672 5672 5670 5669 5669 5668 5665 5663 5661 5660 5659 5658 5657 5656 5655 5653 5651 5648 5646 5646 5645 5644 5643 5641 5640 5639 5637 5635 5633 5631 5629 5628 5628 5628 5628 5628 5626 5625 5624
5665 5664 5664 5664 5664 5663 5663 5661 5660 5659 5657 5655 5653 5652 5652 5650 5649 5649 5648 5647 5644 5642 5640 5639 5638 5638 5636 5634 5634 5632 5630 5628 5625 5623 5622 5621 5621 5621 5621 5619 5618 5617 5616
5656 5656 5656 5655 5655 5655 5655 5654 5652 5651 5650 5647 5646 5645 5643 5642 5642 5641 5640 5638 5637 5634 5633 5632 5631 5630 5628 5627 5626 5624 5622 5620 5618 5616 5616 5615 5614 5613 5611 5610 5609 5608 5606
5647 5648 5647 5647 5647 5647 5647 5646 5646 5645 5645 5644 5642 5641 5638 5637 5638 5637 5634 5632 5630 5628 5625 5623 5622 5620 5618 5617 5616 5615 5614 5612 5610 5609 5607 5606 5605 5604 5603 5601 5600 5598 5596
5639 5639 5639 5638 5639 5639 5638 5637 5637 5638 5639 5639 5639 5637 5635 5635 5634 5632 5629 5627 5624 5621 5618 5616 5614 5612 5611 5609 5607 5606 5606 5604 5603 5601 5599 5598 5597 5596 5595 5593 5591 5589 5588
5633 5632 5631 5631 5631 5630 5630 5628 5627 5628 5630 5630 5630 5630 5629 5628 5627 5625 5623 5620 5617 5615 5611 5609 5607 5606 5604 5602 5601 5599 5598 5598 5596 5594 5592 5591 5590 5589 5587 5586 5584 5582 5581
5627 5626 5626 5625 5625 5624 5623 5622 5621 5620 5619 5619 5621 5621 5621 5620 5619 5617 5615 5611 5608 5606 5605 5603 5601 5600 5599 5597 5595 5594 5592 5591 5589 5587 5586 5584 5582 5581 5580 5578 5577 5575 5574
5621 5620 5620 5619 5618 5617 5616 5614 5613 5612 5611 5611 5611 5611 5611 5610 5609 5607 5605 5603 5602 5600 5598 5597 5596 5595 5593 5591 5590 5589 5587 5584 5582 5581 5579 5577 5576 5574 5572 5571 5570 5568 5566
5615 5615 5615 5613 5612 5610 5608 5606 5605 5604 5603 5603 5603 5603 5602 5601 5599 5598 5596 5595 5594 5593 5592 5591 5590 5589 5587 5585 5584 5582 5580 5578 5576 5574 5572 5571 5569 5567 5566 5564 5563 5561 5559
5609 5609 5609 5606 5604 5602 5600 5599 5598 5597 5595 5595 5596 5597 5595 5594 5593 5592 5590 5588 5587 5586 5585 5584 5583 5581 5580 5579 5578 5576 5573 5571 5568 5567 5565 5563 5561 5559 5558 5557 5555 5553 5551
5602 5602 5600 5598 5597 5595 5593 5592 5591 5590 5589 5589 5588 5588 5587 5587 5586 5584 5582 5581 5580 5580 5579 5577 5575 5573 5572 5571 5570 5568 5566 5563 5561 5559 5557 5555 5553 5551 5550 5548 5546 5544 5543
5595 5594 5592 5591 5590 5589 5587 5585 5584 5583 5582 5581 5580 5579 5578 5577 5577 5576 5574 5573 5572 5572 5571 5569 5568 5566 5564 5563 5562 5560 5558 5555 5553 5552 5549 5547 5545 5543 5541 5539 5538 5536 5534
5587 5586 5585 5583 5582 5581 5580 5578 5577 5576 5575 5573 5573 5572 5570 5569 5568 5568 5567 5566 5564 5563 5562 5561 5560 5558 5556 5554 5553 5551 5550 5548 5545 5542 5541 5538 5536 5534 5532 5530 5529 5528 5526
5579 5579 5577 5576 5574 5573 5572 5571 5570 5568 5567 5566 5564 5563 5562 5561 5560 5560 5559 5558 5556 5554 5553 5552 5551 5549 5547 5546 5544 5542 5540 5538 5536 5533 5532 5529 5527 5525 5523 5522 5520 5519 5517
5571 5570 5569 5568 5566 5565 5564 5563 5563 5561 5559 5558 5557 5556 5555 5554 5553 5552 5550 5549 5548 5546 5545 5543 5542 5540 5539 5536 5535 5533 5531 5529 5527 5525 5523 5521 5518 5516 5514 5513 5512 5510 5509